Other Public Products
Issued by NWS Grand Forks, ND

Home | Current Version | Previous Version | Text Only | Print | Product List | Glossary Off
Versions: 1 2 3 4 5 6 7 8 9 10 11 12 13 14 15 16 17 18 19 20 21 22 23 24 25 26 27 28 29 30 31 32 33 34 35 36 37 38 39 40 41 42 43 44 45 46 47 48 49 50

000
FPUS83 KFGF 201810
OPUFGF
PRAIRIE TO PINES WEATHER ROUNDUP
NATIONAL WEATHER SERVICE EASTERN NORTH DAKOTA/GRAND FORKS ND
100 PM CDT WED AUG 20 2014

 **SATELLITE DATA USED TO AUGMENT SKY COVER AT AUTOMATED STATIONS**
 *****  WEATHER ACROSS EASTERN NORTH DAKOTA  *****

CITY           SKY/WX    TMP DP  RH WIND       PRES   REMARKS
GRAND FORKS    PTSUNNY   81  67  62 SE15      29.78R
6HR MIN TEMP:  63; 6HR MAX TEMP:  81;

GRAND FORKS AF PTSUNNY   81  69  65 SE16      29.79R
GRAND CITY NWS   N/A     70 N/A N/A S10         N/A
BUXTON         NOT AVBL
DEVILS LAKE    PTSUNNY   79  64  61 SE15      29.75S
6HR MIN TEMP:  68; 6HR MAX TEMP:  81;

FARGO          PTSUNNY   83  67  58 SE10      29.78S
6HR MIN TEMP:  65; 6HR MAX TEMP:  83;

WAHPETON ARPT  MOCLDY    79  64  61 S12       29.80R
$$

 *****  WEATHER ACROSS CENTRAL AND WESTERN NORTH DAKOTA  *****

CITY           SKY/WX    TMP DP  RH WIND       PRES   REMARKS
JAMESTOWN      CLOUDY    79  65  62 SE17      29.76S
6HR MIN TEMP:  64; 6HR MAX TEMP:  80;

BISMARCK       CLOUDY    78  67  68 SE9       29.72F
6HR MIN TEMP:  62; 6HR MAX TEMP:  78;

MINOT          PTSUNNY   81  66  60 N7        29.71S
6HR MIN TEMP:  63; 6HR MAX TEMP:  83;

MINOT AFB      PTSUNNY   82  65  56 N5        29.70S
6HR MIN TEMP:  63; 6HR MAX TEMP:  82;

GARRISON         N/A     77  67  71 S12       29.73R
6HR MIN TEMP:  63; 6HR MAX TEMP:  78;

WILLISTON      CLOUDY    75  64  68 SE9       29.71R
6HR MIN TEMP:  68; 6HR MAX TEMP:  75; 6HR PCP:  0.08;

DICKINSON      RAIN      72  66  81 SE3       29.71R
6HR MIN TEMP:  64; 6HR MAX TEMP:  75; 6HR PCP:  0.01;

HETTINGER      CLOUDY    76  65  68 SE13      29.70F
6HR MIN TEMP:  68; 6HR MAX TEMP:  76;

$$

 *****  OTHER OBSERVATIONS NORTHEAST NORTH DAKOTA  *****

CITY           SKY/WX    TMP DP  RH WIND       PRES   REMARKS
WALHALLA       FAIR      82  68  61 S12G22    29.76
LANGDON        FAIR      84  64  51 SE18      29.77F
CAVALIER       FAIR      81  68  65 S12G20    29.76F
GRAFTON        FAIR      81  66  61 S14       29.78R
CANDO          FAIR      82  66  57 S17       29.76S
FORT TOTTEN      N/A     79  66  64 S12       29.95
ROLLA            N/A     81  70  69 S9G18     29.77R
RUGBY          NOT AVBL
 ***** THE ABOVE OBSERVATIONS ARE NON NWS ARE NOT QUALITY
        CONTROLLED AND MAY MIS-REPORT RAIN FOR SNOW...
$$

 *****  OTHER OBSERVATIONS SOUTHEAST NORTH DAKOTA *****

CITY           SKY/WX    TMP DP  RH WIND       PRES   REMARKS
COOPERSTOWN    NOT AVBL
VALLEY CITY    FAIR      81  66  61 S14G20    29.78S
OAKES          NOT AVBL
GWINNER        CLEAR     81  70  69 SE12      29.78F
SHEYENNE NWR     N/A     82  68  61 SE12      29.95
BUFFALO        NOT AVBL
WYNDMERE       NOT AVBL
 ***** THE ABOVE OBSERVATIONS ARE NON NWS ARE NOT QUALITY
       CONTROLLED AND MAY MIS-REPORT RAIN FOR SNOW...
$$

  *****  WEATHER ACROSS NORTHERN MINNESOTA  *****

CITY           SKY/WX    TMP DP  RH WIND       PRES   REMARKS
FLAG ISLAND    SUNNY     72  61  68 SE8       29.83F
WARROAD        MOSUNNY   75  66  73 E10       29.83S
ROSEAU         SUNNY     79  64  61 SE6       29.82S
HALLOCK        SUNNY     81  66  61 SE13      29.78R
THF RVR FALLS  MOSUNNY   79  64  61 S9        29.81S
6HR MIN TEMP:  61; 6HR MAX TEMP:  79;

HALSTAD          N/A     80  64  58 S8          N/A
FOSSTON        MOSUNNY   79  64  61 S8        29.83S
BAUDETTE       PTSUNNY   76  62  62 SE10      29.85F
6HR MIN TEMP:  59; 6HR MAX TEMP:  76;

WASKISH        CLOUDY    75  64  69 CALM      29.85F
CROOKSTON      PTSUNNY   81  64  57 S10       29.80R
$$
  *****  WEATHER ACROSS CENTRAL AND WEST MINNESOTA  *****

CITY           SKY/WX    TMP DP  RH WIND       PRES   REMARKS
BEMIDJI        PTSUNNY   73  62  67 SE10      29.86R
PARK RAPIDS    MOSUNNY   76  62  62 SE10      29.85R
6HR MIN TEMP:  64; 6HR MAX TEMP:  76;

WADENA         PTSUNNY   75  64  69 SE7       29.84S
DETROIT LAKES  MOSUNNY   77  63  61 SE9       29.84S
MOORHEAD       MOSUNNY   81  70  69 SE10      29.79F
FERGUS FALLS   PTSUNNY   79  63  57 SE12      29.80S
ELBOW LAKE     FAIR      79  67  66 SE12      29.82S
6HR MIN TEMP:  64; 6HR MAX TEMP:  80;

MORRIS MN      PTSUNNY   82  66  57 S16       29.81S
STAPLES        MOSUNNY   75  63  64 E6        29.84F
WHEATON        CLOUDY    75  68  78 SE9       29.82S
$$
  *****  WEATHER ELSEWHERE ACROSS MINNESOTA  *****

CITY           SKY/WX    TMP DP  RH WIND       PRES   REMARKS
DULUTH         CLOUDY    67  58  72 S5        29.90F
6HR MIN TEMP:  60; 6HR MAX TEMP:  68;

INTRNTL FALLS  PTSUNNY   72  58  61 E6        29.88R
6HR MIN TEMP:  53; 6HR MAX TEMP:  74;

ELY            CLOUDY    68  59  73 N3        29.90S
CLOQUET        CLOUDY    68  57  68 SE5       29.89F
BRAINERD       MOSUNNY   73  63  70 NE8       29.86F
6HR MIN TEMP:  55; 6HR MAX TEMP:  73;

HIBBING        CLOUDY    72  58  61 CALM      29.89F
6HR MIN TEMP:  55; 6HR MAX TEMP:  72;

ALEXANDRIA     PTSUNNY   79  66  64 SE10      29.86R
6HR MIN TEMP:  63; 6HR MAX TEMP:  79;

SAINT CLOUD    MOSUNNY   81  65  58 SE8       29.86R
6HR MIN TEMP:  63; 6HR MAX TEMP:  81;

MINNEAPOLIS    MOSUNNY   79  65  62 S7G20     29.87R
6HR MIN TEMP:  66; 6HR MAX TEMP:  79;

$$

  *****  WEATHER ACROSS SOUTH DAKOTA  *****

CITY           SKY/WX    TMP DP  RH WIND       PRES   REMARKS
SIOUX FALLS    PTSUNNY   79  68  69 SE13      29.79F
6HR MIN TEMP:  68; 6HR MAX TEMP:  80; 6HR PCP:  0.01;

BROOKINGS      NOT AVBL
WATERTOWN      PTSUNNY   81  65  58 SE14      29.81S
6HR MIN TEMP:  65; 6HR MAX TEMP:  81;

HURON          PTSUNNY   84  65  52 SE17G23   29.73F
6HR MIN TEMP:  68; 6HR MAX TEMP:  84;

SISSETON         N/A     79  66  64 S15       29.78S
ABERDEEN       PTSUNNY   83  65  54 SE15      29.74F
6HR MIN TEMP:  61; 6HR MAX TEMP:  84;

MITCHELL       MOSUNNY   85  70  60 SE10      29.73F
PIERRE         CLOUDY    79  68  69 SE9       29.69F
6HR MIN TEMP:  66; 6HR MAX TEMP:  81; 6HR PCP: TRACE;

MOBRIDGE       PTSUNNY   79  67  66 S17       29.70R
RAPID CITY     MOSUNNY   83  59  44 SE7       29.75S
6HR MIN TEMP:  64; 6HR MAX TEMP:  83; 6HR PCP: TRACE;

$$

  *****  SOME WEATHER IN NEARBY STATES *****

CITY           SKY/WX    TMP DP  RH WIND       PRES   REMARKS
GLASGOW MT     CLOUDY    70  58  65 NW12      29.75R
6HR MIN TEMP:  62; 6HR MAX TEMP:  73; 6HR PCP: TRACE;

GREAT FALLS MT SUNNY     76  44  32 VRB3      29.84S
6HR MIN TEMP:  54; 6HR MAX TEMP:  76; 6HR PCP: TRACE;

CHEYENNE WY    MOSUNNY   76  47  35 W20G36    30.01S
6HR MIN TEMP:  62; 6HR MAX TEMP:  79;

SCOTTSBLUFF NE SUNNY     88  56  33 NW12      29.84F
6HR MIN TEMP:  63; 6HR MAX TEMP:  88;

OMAHA NE       CLOUDY    82  68  62 SE18      29.84F
6HR MIN TEMP:  73; 6HR MAX TEMP:  82; 6HR PCP: TRACE;

DES MOINES IA  LGT RAIN  74  68  81 S8        29.86R
6HR MIN TEMP:  68; 6HR MAX TEMP:  74; 6HR PCP:  1.47;

DAVENPORT IA   CLOUDY    78  68  71 CALM      29.91F
6HR MIN TEMP:  60; 6HR MAX TEMP:  78; 6HR PCP: TRACE;

CHICAGO IL     PTSUNNY   83  64  52 SW12G20   29.91S
6HR MIN TEMP:  68; 6HR MAX TEMP:  83;

EAU CLAIRE WI  PTSUNNY   72  61  68 CALM      29.89F
6HR MIN TEMP:  60; 6HR MAX TEMP:  75;

LA CROSSE WI   SUNNY     81  65  58 E6        29.86F
6HR MIN TEMP:  64; 6HR MAX TEMP:  81;

$$

  *****  SOME NATIONAL WEATHER *****

CITY           SKY/WX    TMP DP  RH WIND       PRES   REMARKS



USA.gov is the U.S. government's official web portal to all federal, state and local government web resources and services.